Time,TemperatureF,DewpointF,PressureIn,WindDirection,WindDirectionDegrees,WindSpeedMPH,WindSpeedGustMPH,Humidity,HourlyPrecipIn,Conditions,Clouds,dailyrainin,SolarRadiationWatts/m^2,SoftwareType,DateUTC
2013-05-09 00:02:00,60.0,60.0,-100.00,ENE,73,4.0,7.0,100,0.00,,,0.00,0.000000,,2013-05-09 10:02:00,
2013-05-09 00:12:00,60.0,60.0,-100.00,ENE,73,4.0,7.0,100,0.00,,,0.00,0.000000,,2013-05-09 10:12:00,
2013-05-09 00:22:00,60.0,60.0,-100.00,ENE,73,4.0,7.0,100,0.00,,,0.00,0.000000,,2013-05-09 10:22:00,
2013-05-09 00:33:00,60.0,60.0,-100.00,ENE,73,4.0,7.0,100,0.00,,,0.00,0.000000,,2013-05-09 10:33:00,
2013-05-09 01:02:00,59.0,59.0,-100.00,ENE,78,3.0,7.0,100,0.00,,,0.00,0.000000,,2013-05-09 11:02:00,
2013-05-09 01:12:00,59.0,59.0,-100.00,ENE,78,3.0,7.0,100,0.00,,,0.00,0.000000,,2013-05-09 11:12:00,
2013-05-09 01:22:00,59.0,59.0,-100.00,ENE,78,3.0,7.0,100,0.00,,,0.00,0.000000,,2013-05-09 11:22:00,
2013-05-09 01:32:00,59.0,59.0,-100.00,ENE,78,3.0,7.0,100,0.00,,,0.00,0.000000,,2013-05-09 11:32:00,
2013-05-09 02:01:00,59.0,59.0,-100.00,ENE,78,0.0,5.0,99,0.00,,,0.00,0.000000,,2013-05-09 12:01:00,
2013-05-09 02:11:00,59.0,59.0,-100.00,ENE,78,0.0,5.0,99,0.00,,,0.00,0.000000,,2013-05-09 12:11:00,
2013-05-09 02:22:00,59.0,59.0,-100.00,ENE,78,0.0,5.0,99,0.00,,,0.00,0.000000,,2013-05-09 12:22:00,
2013-05-09 02:31:00,59.0,59.0,-100.00,ENE,78,0.0,5.0,99,0.00,,,0.00,0.000000,,2013-05-09 12:31:00,
2013-05-09 03:01:00,58.0,58.0,-100.00,ENE,65,0.0,0.0,99,0.00,,,0.00,0.000000,,2013-05-09 13:01:00,
2013-05-09 03:12:00,58.0,58.0,-100.00,ENE,65,0.0,0.0,99,0.00,,,0.00,0.000000,,2013-05-09 13:12:00,
2013-05-09 03:21:00,58.0,58.0,-100.00,ENE,65,0.0,0.0,99,0.00,,,0.00,0.000000,,2013-05-09 13:21:00,
2013-05-09 03:31:00,58.0,58.0,-100.00,ENE,65,0.0,0.0,99,0.00,,,0.00,0.000000,,2013-05-09 13:31:00,
2013-05-09 04:01:00,58.0,58.0,-100.00,South,186,0.0,0.0,100,0.00,,,0.00,0.000000,,2013-05-09 14:01:00,
2013-05-09 04:11:00,58.0,58.0,-100.00,South,186,0.0,0.0,100,0.00,,,0.00,0.000000,,2013-05-09 14:11:00,
2013-05-09 04:21:00,58.0,58.0,-100.00,South,186,0.0,0.0,100,0.00,,,0.00,0.000000,,2013-05-09 14:21:00,
2013-05-09 04:32:00,58.0,58.0,-100.00,South,186,0.0,0.0,100,0.00,,,0.00,0.000000,,2013-05-09 14:32:00,
2013-05-09 05:01:00,58.0,58.0,-100.00,ESE,116,0.0,0.0,100,0.00,,,0.00,0.000000,,2013-05-09 15:01:00,
2013-05-09 05:11:00,58.0,58.0,-100.00,ESE,116,0.0,0.0,100,0.00,,,0.00,0.000000,,2013-05-09 15:11:00,
2013-05-09 05:21:00,58.0,58.0,-100.00,ESE,116,0.0,0.0,100,0.00,,,0.00,0.000000,,2013-05-09 15:21:00,
2013-05-09 05:33:00,58.0,58.0,-100.00,ESE,116,0.0,0.0,100,0.00,,,0.00,0.000000,,2013-05-09 15:33:00,
2013-05-09 06:03:00,57.0,57.0,-100.00,NW,312,0.0,0.0,100,0.00,,,0.00,0.000000,,2013-05-09 16:03:00,
2013-05-09 06:12:00,57.0,57.0,-100.00,NW,312,0.0,0.0,100,0.00,,,0.00,0.000000,,2013-05-09 16:12:00,
2013-05-09 06:22:00,57.0,57.0,-100.00,NW,312,0.0,0.0,100,0.00,,,0.00,0.000000,,2013-05-09 16:22:00,
2013-05-09 06:32:00,57.0,57.0,-100.00,NW,312,0.0,0.0,100,0.00,,,0.00,0.000000,,2013-05-09 16:32:00,
2013-05-09 07:02:00,57.0,57.0,-100.00,ENE,68,2.0,5.0,100,0.00,,,0.00,7.000000,,2013-05-09 17:02:00,
2013-05-09 07:12:00,57.0,57.0,-100.00,ENE,68,2.0,5.0,100,0.00,,,0.00,7.000000,,2013-05-09 17:12:00,
2013-05-09 07:21:00,57.0,57.0,-100.00,ENE,68,2.0,5.0,100,0.00,,,0.00,7.000000,,2013-05-09 17:21:00,
2013-05-09 07:32:00,57.0,57.0,-100.00,ENE,68,2.0,5.0,100,0.00,,,0.00,7.000000,,2013-05-09 17:32:00,
2013-05-09 08:01:00,64.0,63.0,-100.00,ENE,68,0.0,5.0,98,0.00,,,0.00,191.000000,,2013-05-09 18:01:00,
2013-05-09 08:12:00,64.0,63.0,-100.00,ENE,68,0.0,5.0,98,0.00,,,0.00,191.000000,,2013-05-09 18:12:00,
2013-05-09 08:21:00,64.0,63.0,-100.00,ENE,68,0.0,5.0,98,0.00,,,0.00,191.000000,,2013-05-09 18:21:00,
2013-05-09 08:31:00,64.0,63.0,-100.00,ENE,68,0.0,5.0,98,0.00,,,0.00,191.000000,,2013-05-09 18:31:00,
2013-05-09 09:01:00,64.0,59.0,-100.00,ENE,72,0.0,3.0,85,0.00,,,0.00,262.000000,,2013-05-09 19:01:00,
2013-05-09 09:11:00,64.0,59.0,-100.00,ENE,72,0.0,3.0,85,0.00,,,0.00,262.000000,,2013-05-09 19:11:00,
2013-05-09 09:21:00,64.0,59.0,-100.00,ENE,72,0.0,3.0,85,0.00,,,0.00,262.000000,,2013-05-09 19:21:00,
2013-05-09 09:31:00,64.0,59.0,-100.00,ENE,72,0.0,3.0,85,0.00,,,0.00,262.000000,,2013-05-09 19:31:00,
2013-05-09 10:01:00,66.0,61.0,-100.00,SW,228,0.0,4.0,83,0.00,,,0.00,522.000000,,2013-05-09 20:01:00,
2013-05-09 10:11:00,66.0,61.0,-100.00,SW,228,0.0,4.0,83,0.00,,,0.00,522.000000,,2013-05-09 20:11:00,
2013-05-09 10:21:00,66.0,61.0,-100.00,SW,228,0.0,4.0,83,0.00,,,0.00,522.000000,,2013-05-09 20:21:00,
2013-05-09 10:32:00,66.0,61.0,-100.00,SW,228,0.0,4.0,83,0.00,,,0.00,522.000000,,2013-05-09 20:32:00,
2013-05-09 11:11:00,67.0,59.0,-100.00,SW,235,1.0,7.0,75,0.00,,,0.00,530.000000,,2013-05-09 21:11:00,
2013-05-09 11:22:00,67.0,59.0,-100.00,SW,235,1.0,7.0,75,0.00,,,0.00,530.000000,,2013-05-09 21:22:00,
2013-05-09 11:32:00,67.0,59.0,-100.00,SW,235,1.0,7.0,75,0.00,,,0.00,530.000000,,2013-05-09 21:32:00,
2013-05-09 12:03:00,70.0,61.0,-100.00,SW,229,2.0,6.0,73,0.00,,,0.00,546.000000,,2013-05-09 22:03:00,
2013-05-09 12:12:00,70.0,61.0,-100.00,SW,229,2.0,6.0,73,0.00,,,0.00,546.000000,,2013-05-09 22:12:00,
2013-05-09 12:22:00,70.0,61.0,-100.00,SW,229,2.0,6.0,73,0.00,,,0.00,546.000000,,2013-05-09 22:22:00,
2013-05-09 12:32:00,70.0,61.0,-100.00,SW,229,2.0,6.0,73,0.00,,,0.00,546.000000,,2013-05-09 22:32:00,
2013-05-09 13:02:00,71.0,62.0,-100.00,South,169,1.0,7.0,74,0.00,,,0.00,534.000000,,2013-05-09 23:02:00,
2013-05-09 13:12:00,71.0,62.0,-100.00,South,169,1.0,7.0,74,0.00,,,0.00,534.000000,,2013-05-09 23:12:00,
2013-05-09 13:21:00,71.0,62.0,-100.00,South,169,1.0,7.0,74,0.00,,,0.00,534.000000,,2013-05-09 23:21:00,
2013-05-09 13:32:00,71.0,62.0,-100.00,South,169,1.0,7.0,74,0.00,,,0.00,534.000000,,2013-05-09 23:32:00,
2013-05-09 14:01:00,69.0,60.0,-100.00,East,95,4.0,10.0,74,0.00,,,0.00,563.000000,,2013-05-10 00:01:00,
2013-05-09 14:11:00,69.0,60.0,-100.00,East,95,4.0,10.0,74,0.00,,,0.00,563.000000,,2013-05-10 00:11:00,
2013-05-09 14:22:00,69.0,60.0,-100.00,East,95,4.0,10.0,74,0.00,,,0.00,563.000000,,2013-05-10 00:22:00,
2013-05-09 14:32:00,69.0,60.0,-100.00,East,95,4.0,10.0,74,0.00,,,0.00,563.000000,,2013-05-10 00:32:00,
2013-05-09 15:01:00,68.0,61.0,-100.00,SSE,167,2.0,9.0,78,0.00,,,0.00,379.000000,,2013-05-10 01:01:00,
2013-05-09 15:11:00,68.0,61.0,-100.00,SSE,167,2.0,9.0,78,0.00,,,0.00,379.000000,,2013-05-10 01:11:00,
2013-05-09 15:21:00,68.0,61.0,-100.00,SSE,167,2.0,9.0,78,0.00,,,0.00,379.000000,,2013-05-10 01:21:00,
2013-05-09 15:31:00,68.0,61.0,-100.00,SSE,167,2.0,9.0,78,0.00,,,0.00,379.000000,,2013-05-10 01:31:00,
2013-05-09 15:52:00,67.0,60.0,-100.00,SSE,166,2.0,6.0,77,0.00,,,0.00,279.000000,,2013-05-10 01:52:00,
2013-05-09 16:01:00,67.0,60.0,-100.00,SSE,166,2.0,6.0,77,0.00,,,0.00,279.000000,,2013-05-10 02:01:00,
2013-05-09 16:11:00,67.0,60.0,-100.00,SSE,166,2.0,6.0,77,0.00,,,0.00,279.000000,,2013-05-10 02:11:00,
2013-05-09 16:21:00,67.0,60.0,-100.00,SSE,166,2.0,6.0,77,0.00,,,0.00,279.000000,,2013-05-10 02:21:00,
2013-05-09 16:31:00,67.0,60.0,-100.00,SSE,166,2.0,6.0,77,0.00,,,0.00,279.000000,,2013-05-10 02:31:00,
2013-05-09 17:01:00,66.0,60.0,-100.00,WSW,251,1.0,7.0,82,0.00,,,0.00,165.000000,,2013-05-10 03:01:00,
2013-05-09 17:11:00,66.0,60.0,-100.00,WSW,251,1.0,7.0,82,0.00,,,0.00,165.000000,,2013-05-10 03:11:00,
2013-05-09 17:21:00,66.0,60.0,-100.00,WSW,251,1.0,7.0,82,0.00,,,0.00,165.000000,,2013-05-10 03:21:00,
2013-05-09 17:32:00,66.0,60.0,-100.00,WSW,251,1.0,7.0,82,0.00,,,0.00,165.000000,,2013-05-10 03:32:00,
2013-05-09 18:03:00,64.0,59.0,-100.00,East,86,2.0,6.0,84,0.00,,,0.00,109.000000,,2013-05-10 04:03:00,
2013-05-09 18:12:00,64.0,59.0,-100.00,East,86,2.0,6.0,84,0.00,,,0.00,109.000000,,2013-05-10 04:12:00,
2013-05-09 18:22:00,64.0,59.0,-100.00,East,86,2.0,6.0,84,0.00,,,0.00,109.000000,,2013-05-10 04:22:00,
2013-05-09 18:33:00,64.0,59.0,-100.00,East,86,2.0,6.0,84,0.00,,,0.00,109.000000,,2013-05-10 04:33:00,
2013-05-09 19:02:00,63.0,59.0,-100.00,East,96,1.0,7.0,87,0.00,,,0.00,41.000000,,2013-05-10 05:02:00,
2013-05-09 19:12:00,63.0,59.0,-100.00,East,96,1.0,7.0,87,0.00,,,0.00,41.000000,,2013-05-10 05:12:00,
2013-05-09 19:21:00,63.0,59.0,-100.00,East,96,1.0,7.0,87,0.00,,,0.00,41.000000,,2013-05-10 05:21:00,
2013-05-09 19:32:00,63.0,59.0,-100.00,East,96,1.0,7.0,87,0.00,,,0.00,41.000000,,2013-05-10 05:32:00,
2013-05-09 20:01:00,62.0,59.0,-100.00,East,80,1.0,6.0,89,0.00,,,0.00,7.000000,,2013-05-10 06:01:00,
2013-05-09 20:12:00,62.0,59.0,-100.00,East,80,1.0,6.0,89,0.00,,,0.00,7.000000,,2013-05-10 06:12:00,
2013-05-09 20:21:00,62.0,59.0,-100.00,East,80,1.0,6.0,89,0.00,,,0.00,7.000000,,2013-05-10 06:21:00,
2013-05-09 20:32:00,62.0,59.0,-100.00,East,80,1.0,6.0,89,0.00,,,0.00,7.000000,,2013-05-10 06:32:00,
2013-05-09 21:01:00,61.0,60.0,-100.00,ENE,72,2.0,6.0,95,0.00,,,0.00,0.000000,,2013-05-10 07:01:00,
2013-05-09 21:11:00,61.0,60.0,-100.00,ENE,72,2.0,6.0,95,0.00,,,0.00,0.000000,,2013-05-10 07:11:00,
2013-05-09 21:22:00,61.0,60.0,-100.00,ENE,72,2.0,6.0,95,0.00,,,0.00,0.000000,,2013-05-10 07:22:00,
2013-05-09 21:31:00,61.0,60.0,-100.00,ENE,72,2.0,6.0,95,0.00,,,0.00,0.000000,,2013-05-10 07:31:00,
2013-05-09 22:02:00,59.0,58.0,-100.00,ESE,115,1.0,6.0,96,0.00,,,0.00,0.000000,,2013-05-10 08:02:00,
2013-05-09 22:12:00,59.0,58.0,-100.00,ESE,115,1.0,6.0,96,0.00,,,0.00,0.000000,,2013-05-10 08:12:00,
2013-05-09 22:21:00,59.0,58.0,-100.00,ESE,115,1.0,6.0,96,0.00,,,0.00,0.000000,,2013-05-10 08:21:00,
2013-05-09 22:32:00,59.0,58.0,-100.00,ESE,115,1.0,6.0,96,0.00,,,0.00,0.000000,,2013-05-10 08:32:00,
2013-05-09 23:01:00,59.0,58.0,-100.00,ENE,67,2.0,6.0,98,0.00,,,0.00,0.000000,,2013-05-10 09:01:00,
2013-05-09 23:11:00,59.0,58.0,-100.00,ENE,67,2.0,6.0,98,0.00,,,0.00,0.000000,,2013-05-10 09:11:00,
2013-05-09 23:21:00,59.0,58.0,-100.00,ENE,67,2.0,6.0,98,0.00,,,0.00,0.000000,,2013-05-10 09:21:00,
2013-05-09 23:32:00,59.0,58.0,-100.00,ENE,67,2.0,6.0,98,0.00,,,0.00,0.000000,,2013-05-10 09:32:00,